Location: *
(51.5000°N, 0.1100°W)
Time: 20:46:10
(UTC+00:00)

SL-24 R/B - Pass Details

Date: 25 May 2024
Orbit: 624 x 1073 km, 98.1° (Epoch: 16 June)

Event Time Altitude Azimuth Distance (km) Brightness Sun altitude
Rises 00:02:09 0° 13° (NNE) 2,979 9.2 -17.5°
Reaches altitude 10° 00:04:16 10° 12° (NNE) 2,098 8.0 -17.5°
Maximum altitude 00:08:49 78° 287° (WNW) 731 4.4 -17.5°
Enters shadow 00:11:19 29° 205° (SSW) 1,324 5.2 -17.4°
